Location: Aufkirchen
(47.9603°N, 11.3653°E)
Time: 15:21:06
(UTC+01:00)

Courier 1B Rocket - Pass Details

Date: 04 December 2020
Orbit: 920 x 1202 km, 28.2° (Epoch: 17 January)

Event Time Altitude Azimuth Distance (km) Brightness Sun altitude
Exits shadow 05:29:13 - 219° (SW) 3,267 7.5 -22.2°
Reaches altitude 10° 05:29:58 10° 215° (SW) 3,115 7.4 -22.1°
Maximum altitude 05:34:31 17° 178° (S) 2,650 7.4 -21.3°
Drops below altitude 10° 05:39:04 10° 142° (SE) 3,122 8.3 -20.6°
Sets 05:43:06 0° 123° (ESE) 4,066 9.5 -19.9°
